| time (UTC) | temp F | wind direction | speed knots | gust knots | rain 1hr in | rain 24hr in | rain mn in | humidity % | barometer mb |
| 20260507005533 | 54 | 0 | 0.0 | 0.0 | 0.00 | 2.84 | 0.00 | 93 | 1012.9 |
| 20260507005032 | 54 | 0 | 0.0 | 0.0 | 0.00 | 2.84 | 0.00 | 93 | 1012.8 |
| 20260507004542 | 54 | 0 | 0.0 | 0.0 | 0.00 | 2.84 | 0.00 | 93 | 1012.8 |
| 20260507004031 | 54 | 0 | 0.0 | 0.0 | 0.00 | 2.84 | 0.00 | 93 | 1012.8 |
| 20260507003533 | 55 | 0 | 0.0 | 0.0 | 0.00 | 2.84 | 0.00 | 93 | 1012.8 |
| 20260507003046 | 55 | 0 | 0.0 | 0.0 | 0.00 | 2.84 | 0.00 | 93 | 1012.8 |
| 20260507002531 | 55 | 0 | 0.0 | 0.0 | 0.00 | 2.84 | 0.00 | 92 | 1012.9 |
| 20260507002033 | 55 | 0 | 0.0 | 0.0 | 0.00 | 2.84 | 0.00 | 92 | 1012.8 |
| 20260507001606 | 55 | 0 | 0.0 | 0.9 | 0.00 | 2.84 | 0.00 | 92 | 1012.9 |
| 20260507001031 | 55 | 0 | 0.0 | 2.6 | 0.00 | 2.84 | 0.00 | 92 | 1012.7 |
| 20260507000531 | 55 | 94 | 0.0 | 2.6 | 0.00 | 2.84 | 0.00 | 92 | 1012.8 |
| 20260507000047 | 55 | 120 | 0.9 | 2.6 | 0.00 | 2.84 | 0.00 | 92 | 1012.9 |
| 20260506235533 | 55 | 104 | 0.9 | 3.5 | 0.00 | 3.25 | 0.00 | 92 | 1012.9 |
| 20260506235036 | 56 | 0 | 0.0 | 3.5 | 0.00 | 3.25 | 0.00 | 92 | 1012.8 |
| 20260506234555 | 56 | 146 | 0.9 | 4.3 | 0.00 | 3.25 | 0.00 | 92 | 1012.9 |
| 20260506234033 | 56 | 128 | 0.9 | 5.2 | 0.00 | 3.25 | 0.00 | 92 | 1012.8 |
| 20260506233533 | 56 | 129 | 1.7 | 5.2 | 0.00 | 3.25 | 0.00 | 92 | 1012.9 |
| 20260506233045 | 56 | 165 | 1.7 | 5.2 | 0.00 | 3.25 | 0.00 | 92 | 1012.8 |
| 20260506232533 | 56 | 149 | 2.6 | 5.2 | 0.00 | 3.25 | 0.00 | 92 | 1012.9 |
| 20260506232034 | 56 | 107 | 2.6 | 5.2 | 0.00 | 3.25 | 0.00 | 92 | 1012.9 |
| 20260506231544 | 56 | 149 | 1.7 | 5.2 | 0.00 | 3.25 | 0.00 | 92 | 1012.8 |
| 20260506231032 | 56 | 115 | 0.9 | 3.5 | 0.00 | 3.25 | 0.00 | 92 | 1012.9 |
| 20260506230531 | 56 | 113 | 1.7 | 3.5 | 0.00 | 3.25 | 0.00 | 92 | 1012.8 |
| 20260506230043 | 56 | 115 | 1.7 | 3.5 | 0.00 | 3.25 | 0.00 | 92 | 1012.7 |
| 20260506225531 | 56 | 120 | 0.9 | 2.6 | 0.00 | 3.61 | 0.00 | 92 | 1012.7 |
| 20260506225033 | 56 | 121 | 0.9 | 2.6 | 0.00 | 3.61 | 0.00 | 92 | 1012.9 |
| 20260506224603 | 56 | 106 | 0.9 | 2.6 | 0.00 | 3.61 | 0.00 | 92 | 1012.8 |
| 20260506224030 | 57 | 131 | 0.0 | 1.7 | 0.00 | 3.61 | 0.00 | 92 | 1012.9 |
| 20260506223530 | 57 | 110 | 0.0 | 1.7 | 0.00 | 3.61 | 0.00 | 92 | 1012.8 |
| 20260506223046 | 57 | 0 | 0.0 | 2.6 | 0.00 | 3.61 | 0.00 | 92 | 1013.0 |
| 20260506222533 | 57 | 0 | 0.9 | 4.3 | 0.00 | 3.61 | 0.00 | 91 | 1012.9 |
| 20260506222034 | 57 | 0 | 1.7 | 4.3 | 0.00 | 3.61 | 0.00 | 91 | 1013.0 |
| 20260506221543 | 57 | 123 | 1.7 | 4.3 | 0.00 | 3.61 | 0.00 | 92 | 1013.0 |
| 20260506221032 | 57 | 101 | 0.9 | 4.3 | 0.00 | 3.61 | 0.00 | 92 | 1012.9 |
| 20260506220531 | 58 | 95 | 0.9 | 4.3 | 0.00 | 3.61 | 0.00 | 92 | 1012.8 |
| 20260506215532 | 58 | 0 | 0.0 | 3.5 | 0.00 | 3.61 | 3.61 | 92 | 1012.9 |
| 20260506215031 | 58 | 0 | 0.9 | 3.5 | 0.00 | 3.61 | 3.61 | 92 | 1012.7 |
| 20260506214549 | 58 | 107 | 0.0 | 0.9 | 0.00 | 3.61 | 3.61 | 92 | 1012.6 |
| 20260506214033 | 59 | 0 | 0.0 | 0.0 | 0.00 | 3.61 | 3.61 | 92 | 1012.7 |
| 20260506213532 | 59 | 0 | 0.0 | 0.0 | 0.00 | 3.61 | 3.61 | 92 | 1012.6 |
| 20260506213047 | 59 | 0 | 0.0 | 0.0 | 0.00 | 3.61 | 3.61 | 92 | 1012.8 |
| 20260506212534 | 59 | 0 | 0.0 | 0.0 | 0.00 | 3.61 | 3.61 | 92 | 1012.8 |
| 20260506212033 | 59 | 0 | 0.0 | 0.0 | 0.00 | 3.61 | 3.61 | 92 | 1012.8 |
| 20260506211551 | 59 | 0 | 0.0 | 0.0 | 0.00 | 3.61 | 3.61 | 91 | 1012.7 |
| 20260506211032 | 59 | 0 | 0.0 | 0.0 | 0.00 | 3.61 | 3.61 | 91 | 1012.7 |
| 20260506210533 | 59 | 0 | 0.0 | 0.0 | 0.00 | 3.61 | 3.61 | 91 | 1012.6 |
| 20260506210047 | 59 | 0 | 0.0 | 0.0 | 0.00 | 3.61 | 3.61 | 91 | 1012.8 |
| 20260506205533 | 59 | 0 | 0.0 | 1.7 | 0.00 | 3.61 | 3.61 | 91 | 1012.7 |
| 20260506205033 | 59 | 0 | 0.0 | 1.7 | 0.00 | 3.61 | 3.61 | 91 | 1012.5 |
| 20260506204544 | 59 | 94 | 0.0 | 2.6 | 0.00 | 3.61 | 3.61 | 90 | 1012.5 |
| 20260506204036 | 60 | 85 | 0.9 | 2.6 | 0.00 | 3.61 | 3.61 | 90 | 1012.6 |
| 20260506203533 | 60 | 79 | 0.9 | 1.7 | 0.00 | 3.61 | 3.61 | 89 | 1012.3 |
| 20260506203056 | 61 | 85 | 0.0 | 1.7 | 0.00 | 3.61 | 3.61 | 87 | 1012.3 |
| 20260506202533 | 61 | 0 | 0.0 | 1.7 | 0.00 | 3.61 | 3.61 | 86 | 1012.2 |
| 20260506202033 | 61 | 297 | 0.0 | 0.9 | 0.00 | 3.61 | 3.61 | 86 | 1012.2 |
| 20260506201546 | 61 | 0 | 0.0 | 0.9 | 0.00 | 3.61 | 3.61 | 87 | 1012.3 |
| 20260506201033 | 61 | 258 | 0.0 | 0.9 | 0.00 | 3.61 | 3.61 | 87 | 1012.3 |
| 20260506200534 | 61 | 0 | 0.0 | 0.9 | 0.00 | 3.61 | 3.61 | 87 | 1012.3 |
| 20260506200043 | 61 | 0 | 0.0 | 1.7 | 0.00 | 3.61 | 3.61 | 87 | 1012.1 |
| 20260506195532 | 61 | 0 | 0.0 | 1.7 | 0.00 | 3.61 | 3.61 | 87 | 1012.1 |
| 20260506195031 | 62 | 259 | 0.9 | 1.7 | 0.00 | 3.61 | 3.61 | 87 | 1012.0 |
| 20260506194551 | 62 | 272 | 0.0 | 1.7 | 0.00 | 3.61 | 3.61 | 87 | 1011.8 |
| 20260506194033 | 62 | 259 | 0.0 | 1.7 | 0.00 | 3.61 | 3.61 | 87 | 1011.8 |
| 20260506193531 | 62 | 267 | 0.9 | 1.7 | 0.00 | 3.61 | 3.61 | 87 | 1011.7 |
| 20260506193049 | 62 | 266 | 0.9 | 1.7 | 0.00 | 3.61 | 3.61 | 87 | 1011.7 |
| 20260506192531 | 62 | 0 | 0.9 | 1.7 | 0.00 | 3.61 | 3.61 | 87 | 1011.6 |
| 20260506192034 | 62 | 271 | 0.0 | 0.9 | 0.00 | 3.61 | 3.61 | 86 | 1011.5 |
| 20260506191551 | 62 | 247 | 0.0 | 0.9 | 0.00 | 3.61 | 3.61 | 85 | 1011.5 |
| 20260506191033 | 62 | 226 | 0.0 | 0.9 | 0.00 | 3.61 | 3.61 | 85 | 1011.5 |
| 20260506190533 | 62 | 0 | 0.0 | 0.9 | 0.00 | 3.61 | 3.61 | 85 | 1011.3 |
| 20260506190047 | 62 | 0 | 0.0 | 1.7 | 0.00 | 3.61 | 3.61 | 85 | 1011.2 |
| 20260506185532 | 62 | 218 | 0.9 | 1.7 | 0.00 | 3.74 | 3.61 | 84 | 1011.2 |
| 20260506185034 | 62 | 209 | 0.9 | 1.7 | 0.00 | 3.74 | 3.61 | 84 | 1011.1 |
| 20260506184542 | 62 | 0 | 0.0 | 0.9 | 0.00 | 3.74 | 3.61 | 83 | 1011.0 |
| 20260506184033 | 62 | 0 | 0.0 | 0.9 | 0.00 | 3.74 | 3.61 | 83 | 1011.0 |
| 20260506183534 | 62 | 255 | 0.0 | 0.9 | 0.00 | 3.74 | 3.61 | 83 | 1010.8 |
| 20260506183046 | 63 | 0 | 0.0 | 0.9 | 0.00 | 3.74 | 3.61 | 82 | 1010.8 |
| 20260506182532 | 63 | 0 | 0.0 | 0.9 | 0.00 | 3.74 | 3.61 | 82 | 1010.8 |
| 20260506182032 | 63 | 255 | 0.0 | 3.5 | 0.00 | 3.74 | 3.61 | 81 | 1010.8 |
| 20260506181559 | 63 | 0 | 0.0 | 3.5 | 0.00 | 3.74 | 3.61 | 81 | 1010.8 |
| 20260506181032 | 63 | 306 | 1.7 | 3.5 | 0.00 | 3.74 | 3.61 | 80 | 1010.9 |
| 20260506180534 | 63 | 0 | 0.0 | 6.1 | 0.00 | 3.74 | 3.61 | 81 | 1010.7 |
| 20260506180050 | 63 | 262 | 2.6 | 6.1 | 0.00 | 3.74 | 3.61 | 80 | 1010.7 |
| 20260506175530 | 63 | 304 | 3.5 | 5.2 | 0.00 | 3.74 | 3.61 | 80 | 1010.7 |
| 20260506175032 | 64 | 309 | 3.5 | 7.0 | 0.00 | 3.74 | 3.61 | 80 | 1010.5 |
| 20260506174544 | 64 | 306 | 3.5 | 7.0 | 0.00 | 3.74 | 3.61 | 80 | 1010.6 |
| 20260506174035 | 64 | 314 | 4.3 | 6.1 | 0.00 | 3.74 | 3.61 | 80 | 1010.6 |
| 20260506173533 | 64 | 333 | 3.5 | 6.1 | 0.00 | 3.74 | 3.61 | 78 | 1010.6 |
| 20260506173120 | 65 | 301 | 3.5 | 6.1 | 0.00 | 3.74 | 3.61 | 79 | 1010.6 |
| 20260506172533 | 65 | 266 | 2.6 | 7.0 | 0.00 | 3.74 | 3.61 | 80 | 1010.5 |
| 20260506172031 | 65 | 317 | 3.5 | 7.0 | 0.00 | 3.74 | 3.61 | 80 | 1010.3 |
| 20260506171555 | 65 | 309 | 3.5 | 7.0 | 0.00 | 3.74 | 3.61 | 79 | 1010.3 |
| 20260506171032 | 65 | 318 | 1.7 | 4.3 | 0.00 | 3.74 | 3.61 | 79 | 1010.3 |
| 20260506170534 | 65 | 0 | 1.7 | 4.3 | 0.00 | 3.74 | 3.61 | 80 | 1010.4 |
| 20260506170045 | 65 | 316 | 2.6 | 7.0 | 0.00 | 3.74 | 3.61 | 81 | 1010.5 |
| 20260506165532 | 64 | 313 | 2.6 | 7.0 | 0.00 | 3.74 | 3.61 | 80 | 1010.5 |
| 20260506165033 | 64 | 283 | 3.5 | 7.0 | 0.00 | 3.74 | 3.61 | 82 | 1010.6 |
| 20260506164546 | 64 | 257 | 3.5 | 7.0 | 0.00 | 3.74 | 3.61 | 81 | 1010.6 |
| 20260506164032 | 64 | 304 | 3.5 | 6.1 | 0.00 | 3.74 | 3.61 | 80 | 1010.6 |
| 20260506163535 | 64 | 273 | 2.6 | 6.1 | 0.00 | 3.74 | 3.61 | 82 | 1010.7 |
| 20260506163051 | 64 | 295 | 2.6 | 6.1 | 0.00 | 3.74 | 3.61 | 82 | 1010.7 |
| 20260506162534 | 64 | 304 | 3.5 | 6.1 | 0.00 | 3.74 | 3.61 | 82 | 1010.6 |
| 20260506162033 | 64 | 281 | 3.5 | 6.1 | 0.00 | 3.74 | 3.61 | 81 | 1010.5 |
| 20260506161549 | 64 | 281 | 3.5 | 7.8 | 0.00 | 3.74 | 3.61 | 80 | 1010.6 |
| 20260506161032 | 64 | 266 | 4.3 | 9.6 | 0.00 | 3.74 | 3.61 | 80 | 1010.4 |
| 20260506160533 | 64 | 282 | 5.2 | 9.6 | 0.00 | 3.74 | 3.61 | 79 | 1010.6 |
| 20260506160059 | 64 | 274 | 5.2 | 9.6 | 0.00 | 3.74 | 3.61 | 79 | 1010.5 |
| 20260506155534 | 64 | 220 | 4.3 | 7.0 | 0.00 | 3.74 | 3.61 | 81 | 1010.6 |
| 20260506155036 | 65 | 245 | 4.3 | 7.0 | 0.00 | 3.74 | 3.61 | 81 | 1010.6 |
| 20260506154548 | 65 | 273 | 4.3 | 7.0 | 0.00 | 3.74 | 3.61 | 79 | 1010.6 |
| 20260506154034 | 65 | 288 | 2.6 | 9.6 | 0.00 | 3.74 | 3.61 | 79 | 1010.7 |
| 20260506153534 | 65 | 281 | 3.5 | 9.6 | 0.00 | 3.74 | 3.61 | 79 | 1010.8 |
| 20260506153050 | 65 | 277 | 5.2 | 9.6 | 0.00 | 3.74 | 3.61 | 77 | 1010.7 |
| 20260506152534 | 65 | 274 | 5.2 | 8.7 | 0.00 | 3.74 | 3.61 | 77 | 1010.7 |
| 20260506152034 | 65 | 308 | 4.3 | 7.8 | 0.00 | 3.74 | 3.61 | 78 | 1010.5 |
| 20260506151555 | 65 | 310 | 4.3 | 11.3 | 0.00 | 3.74 | 3.61 | 77 | 1010.7 |
| 20260506151034 | 65 | 305 | 6.1 | 11.3 | 0.00 | 3.74 | 3.61 | 75 | 1010.6 |
| 20260506150534 | 65 | 286 | 4.3 | 10.4 | 0.00 | 3.74 | 3.61 | 74 | 1010.7 |
| 20260506150049 | 66 | 298 | 6.1 | 10.4 | 0.00 | 3.74 | 3.61 | 72 | 1010.6 |
| 20260506145532 | 66 | 303 | 7.0 | 11.3 | 0.00 | 3.74 | 3.61 | 68 | 1010.6 |
| 20260506145035 | 66 | 273 | 7.0 | 11.3 | 0.00 | 3.74 | 3.61 | 71 | 1010.4 |
| 20260506144550 | 66 | 309 | 5.2 | 11.3 | 0.00 | 3.74 | 3.61 | 74 | 1010.5 |
| 20260506144034 | 66 | 297 | 6.1 | 11.3 | 0.06 | 3.74 | 3.61 | 74 | 1010.3 |
| 20260506143534 | 66 | 304 | 7.0 | 11.3 | 0.13 | 3.74 | 3.61 | 71 | 1010.3 |
| 20260506143050 | 66 | 249 | 6.1 | 11.3 | 0.13 | 3.74 | 3.61 | 76 | 1010.3 |
| 20260506142535 | 66 | 253 | 7.8 | 11.3 | 0.13 | 3.74 | 3.61 | 77 | 1010.3 |
| 20260506142038 | 66 | 273 | 7.8 | 11.3 | 0.13 | 3.74 | 3.61 | 78 | 1010.2 |
| 20260506141545 | 66 | 274 | 5.2 | 12.2 | 0.13 | 3.74 | 3.61 | 81 | 1010.2 |
| 20260506141035 | 66 | 221 | 5.2 | 12.2 | 0.13 | 3.74 | 3.61 | 85 | 1010.3 |
| 20260506140535 | 65 | 221 | 6.1 | 12.2 | 0.13 | 3.74 | 3.61 | 83 | 1010.3 |
| 20260506140053 | 65 | 304 | 5.2 | 12.2 | 0.13 | 3.74 | 3.61 | 85 | 1010.3 |
| 20260506135534 | 64 | 265 | 5.2 | 13.9 | 0.13 | 3.74 | 3.61 | 87 | 1010.4 |
| 20260506135034 | 64 | 262 | 7.8 | 13.9 | 0.13 | 3.74 | 3.61 | 87 | 1010.4 |
| 20260506134549 | 64 | 276 | 7.8 | 13.9 | 0.12 | 3.73 | 3.60 | 84 | 1010.4 |
| 20260506134034 | 66 | 282 | 8.7 | 14.8 | 0.04 | 3.65 | 3.52 | 85 | 1010.6 |
| 20260506133534 | 66 | 267 | 7.0 | 14.8 | 0.00 | 3.60 | 3.48 | 83 | 1010.5 |
| 20260506133048 | 67 | 311 | 5.2 | 9.6 | 0.00 | 3.60 | 3.48 | 83 | 1010.4 |
| 20260506132534 | 67 | 293 | 5.2 | 11.3 | 0.00 | 3.60 | 3.48 | 83 | 1010.5 |
| 20260506132037 | 67 | 320 | 6.1 | 12.2 | 0.00 | 3.60 | 3.48 | 81 | 1010.5 |
| 20260506131558 | 67 | 266 | 5.2 | 12.2 | 0.00 | 3.60 | 3.48 | 80 | 1010.2 |
| 20260506131034 | 67 | 251 | 7.0 | 12.2 | 0.00 | 3.60 | 3.48 | 80 | 1010.5 |
| 20260506130534 | 67 | 293 | 6.1 | 13.9 | 0.00 | 3.60 | 3.48 | 82 | 1010.5 |
| 20260506130053 | 67 | 260 | 6.1 | 15.6 | 0.00 | 3.60 | 3.48 | 81 | 1010.5 |
| 20260506125533 | 67 | 263 | 9.6 | 15.6 | 0.00 | 3.62 | 3.48 | 80 | 1010.6 |
| 20260506125031 | 68 | 262 | 8.7 | 17.4 | 0.00 | 3.62 | 3.48 | 80 | 1010.6 |
| 20260506124546 | 68 | 257 | 11.3 | 17.4 | 0.00 | 3.62 | 3.48 | 78 | 1010.6 |
| 20260506124035 | 68 | 266 | 7.8 | 14.8 | 0.00 | 3.62 | 3.48 | 78 | 1010.4 |
| 20260506123536 | 67 | 264 | 7.8 | 17.4 | 0.00 | 3.62 | 3.48 | 80 | 1010.5 |
| 20260506123047 | 67 | 262 | 8.7 | 17.4 | 0.00 | 3.62 | 3.48 | 78 | 1010.6 |
| 20260506122535 | 67 | 245 | 8.7 | 13.9 | 0.00 | 3.62 | 3.48 | 82 | 1010.4 |
| 20260506122032 | 66 | 271 | 5.2 | 8.7 | 0.00 | 3.62 | 3.48 | 86 | 1010.4 |
| 20260506121541 | 66 | 214 | 4.3 | 10.4 | 0.00 | 3.62 | 3.48 | 85 | 1010.6 |
| 20260506121031 | 65 | 211 | 6.1 | 11.3 | 0.00 | 3.62 | 3.48 | 84 | 1010.6 |
| 20260506120536 | 65 | 143 | 6.1 | 13.0 | 0.00 | 3.62 | 3.48 | 84 | 1010.5 |
| 20260506120056 | 65 | 235 | 8.7 | 13.9 | 0.00 | 3.62 | 3.48 | 86 | 1010.5 |
| 20260506115534 | 65 | 245 | 8.7 | 13.9 | 0.00 | 3.69 | 3.48 | 87 | 1010.4 |
| 20260506115033 | 65 | 250 | 8.7 | 13.0 | 0.00 | 3.69 | 3.48 | 87 | 1010.4 |
| 20260506114546 | 66 | 243 | 8.7 | 13.0 | 0.00 | 3.69 | 3.48 | 87 | 1010.3 |
| 20260506114032 | 66 | 236 | 7.0 | 15.6 | 0.00 | 3.69 | 3.48 | 88 | 1010.3 |
| 20260506113534 | 66 | 263 | 7.8 | 15.6 | 0.00 | 3.69 | 3.48 | 88 | 1010.2 |
| 20260506113044 | 65 | 257 | 7.0 | 15.6 | 0.00 | 3.69 | 3.48 | 87 | 1010.3 |
| 20260506112535 | 66 | 252 | 7.8 | 15.6 | 0.00 | 3.69 | 3.48 | 87 | 1010.3 |
| 20260506112035 | 67 | 240 | 8.7 | 15.6 | 0.00 | 3.68 | 3.47 | 84 | 1010.3 |
| 20260506111542 | 67 | 238 | 7.8 | 19.1 | 0.00 | 3.68 | 3.47 | 82 | 1010.4 |
| 20260506111035 | 67 | 258 | 9.6 | 19.1 | 0.00 | 3.68 | 3.47 | 82 | 1010.3 |
| 20260506110532 | 67 | 158 | 8.7 | 17.4 | 0.00 | 3.68 | 3.47 | 81 | 1010.2 |
| 20260506110055 | 67 | 181 | 10.4 | 17.4 | 0.00 | 3.68 | 3.47 | 80 | 1010.4 |
| 20260506105531 | 67 | 210 | 9.6 | 17.4 | 0.00 | 3.70 | 3.47 | 82 | 1010.3 |
| 20260506105033 | 67 | 226 | 11.3 | 16.5 | 0.00 | 3.70 | 3.47 | 82 | 1010.1 |
| 20260506104550 | 67 | 254 | 7.8 | 16.5 | 0.00 | 3.70 | 3.47 | 83 | 1010.3 |
| 20260506104032 | 67 | 241 | 7.8 | 17.4 | 0.00 | 3.70 | 3.47 | 81 | 1010.5 |
| 20260506103532 | 68 | 227 | 9.6 | 18.2 | 0.00 | 3.70 | 3.47 | 80 | 1010.3 |
| 20260506103047 | 68 | 145 | 8.7 | 18.2 | 0.00 | 3.70 | 3.47 | 79 | 1010.2 |
| 20260506102532 | 69 | 216 | 7.8 | 17.4 | 0.00 | 3.70 | 3.47 | 79 | 1010.4 |
| 20260506102035 | 68 | 197 | 9.6 | 17.4 | 0.00 | 3.70 | 3.47 | 80 | 1010.2 |
| 20260506101544 | 68 | 169 | 10.4 | 17.4 | 0.00 | 3.70 | 3.47 | 79 | 1010.4 |
| 20260506101035 | 68 | 164 | 8.7 | 17.4 | 0.00 | 3.70 | 3.47 | 79 | 1010.2 |
| 20260506100534 | 68 | 152 | 9.6 | 16.5 | 0.00 | 3.70 | 3.47 | 79 | 1010.3 |
| 20260506100043 | 68 | 146 | 9.6 | 19.1 | 0.00 | 3.70 | 3.47 | 79 | 1010.2 |
| 20260506095534 | 68 | 194 | 8.7 | 19.1 | 0.00 | 4.08 | 3.47 | 81 | 1010.2 |
| 20260506095031 | 68 | 243 | 9.6 | 19.1 | 0.00 | 4.08 | 3.47 | 80 | 1010.2 |
| 20260506094556 | 67 | 188 | 10.4 | 19.1 | 0.00 | 4.08 | 3.47 | 81 | 1010.1 |
| 20260506094033 | 67 | 169 | 7.0 | 17.4 | 0.00 | 4.08 | 3.47 | 81 | 1010.0 |
| 20260506093531 | 67 | 238 | 10.4 | 17.4 | 0.00 | 4.08 | 3.47 | 82 | 1010.1 |
| 20260506093047 | 67 | 160 | 8.7 | 14.8 | 0.00 | 4.08 | 3.47 | 83 | 1010.0 |
| 20260506092531 | 66 | 148 | 9.6 | 13.9 | 0.00 | 4.08 | 3.47 | 83 | 1010.0 |
| 20260506092032 | 66 | 173 | 8.7 | 12.2 | 0.00 | 4.08 | 3.47 | 84 | 1010.0 |
| 20260506091549 | 66 | 207 | 6.1 | 13.0 | 0.00 | 4.08 | 3.47 | 84 | 1010.0 |
| 20260506091033 | 66 | 157 | 7.8 | 13.0 | 0.00 | 4.08 | 3.47 | 84 | 1010.0 |
| 20260506090534 | 65 | 174 | 7.0 | 13.0 | 0.00 | 4.08 | 3.47 | 85 | 1010.1 |
| 20260506090048 | 65 | 129 | 7.0 | 15.6 | 0.00 | 4.08 | 3.47 | 85 | 1010.1 |
| 20260506085534 | 66 | 175 | 7.0 | 15.6 | 0.00 | 4.36 | 3.47 | 86 | 1010.2 |
| 20260506085034 | 65 | 212 | 7.8 | 15.6 | 0.00 | 4.36 | 3.47 | 86 | 1010.2 |
| 20260506084547 | 65 | 212 | 7.0 | 15.6 | 0.00 | 4.36 | 3.47 | 87 | 1010.1 |
| 20260506084034 | 64 | 169 | 5.2 | 10.4 | 0.00 | 4.36 | 3.47 | 90 | 1009.9 |
| 20260506083536 | 64 | 156 | 5.2 | 9.6 | 0.00 | 4.36 | 3.47 | 92 | 1010.1 |
| 20260506083047 | 63 | 173 | 4.3 | 9.6 | 0.00 | 4.36 | 3.47 | 95 | 1010.1 |
| 20260506082535 | 63 | 158 | 5.2 | 9.6 | 0.00 | 4.36 | 3.47 | 96 | 1010.1 |
| 20260506082035 | 62 | 183 | 5.2 | 12.2 | 0.00 | 4.36 | 3.47 | 96 | 1010.2 |
| 20260506081547 | 62 | 139 | 7.0 | 14.8 | 0.00 | 4.36 | 3.47 | 96 | 1010.0 |
| 20260506081034 | 62 | 171 | 9.6 | 14.8 | 0.00 | 4.36 | 3.47 | 96 | 1009.9 |
| 20260506080533 | 61 | 212 | 7.0 | 13.0 | 0.00 | 4.36 | 3.47 | 96 | 1010.0 |
| 20260506073048 | 60 | 165 | 6.1 | 16.5 | 0.00 | 4.36 | 3.47 | 97 | 1010.0 |
| 20260506072536 | 60 | 211 | 7.0 | 16.5 | 0.00 | 4.36 | 3.47 | 97 | 1010.0 |
| 20260506072031 | 60 | 193 | 7.8 | 14.8 | 0.00 | 4.36 | 3.47 | 97 | 1010.0 |
| 20260506071550 | 60 | 205 | 7.8 | 13.0 | 0.00 | 4.36 | 3.47 | 97 | 1009.9 |
| 20260506071035 | 60 | 157 | 7.8 | 13.0 | 0.00 | 4.36 | 3.47 | 97 | 1009.8 |
| 20260506070532 | 60 | 189 | 7.0 | 13.0 | 0.00 | 4.36 | 3.47 | 97 | 1009.9 |
| 20260506062033 | 60 | 143 | 4.3 | 9.6 | 0.08 | 4.36 | 3.47 | 97 | 1009.7 |
| 20260506061551 | 60 | 148 | 5.2 | 9.6 | 0.08 | 4.36 | 3.47 | 97 | 1009.8 |
| 20260506061033 | 60 | 109 | 2.6 | 6.1 | 0.08 | 4.36 | 3.47 | 97 | 1009.8 |
| 20260506060534 | 60 | 188 | 1.7 | 6.1 | 0.08 | 4.36 | 3.47 | 97 | 1010.0 |
| 20260506051034 | 59 | 0 | 0.0 | 1.7 | 0.39 | 4.28 | 3.38 | 97 | 1009.8 |
| 20260506050531 | 59 | 0 | 0.0 | 5.2 | 0.47 | 4.28 | 3.38 | 97 | 1009.8 |
| 20260506045034 | 59 | 0 | 0.9 | 2.6 | 0.55 | 4.38 | 3.38 | 97 | 1009.7 |
| 20260506044544 | 59 | 133 | 0.9 | 4.3 | 0.55 | 4.38 | 3.38 | 97 | 1009.6 |
| 20260506044034 | 59 | 90 | 0.9 | 7.8 | 0.55 | 4.38 | 3.38 | 97 | 1009.5 |
| 20260506043532 | 59 | 132 | 4.3 | 7.8 | 0.54 | 4.37 | 3.37 | 97 | 1009.6 |
| 20260506043047 | 59 | 140 | 4.3 | 8.7 | 0.50 | 4.33 | 3.33 | 97 | 1009.6 |
| 20260506042532 | 59 | 119 | 3.5 | 8.7 | 0.44 | 4.23 | 3.23 | 97 | 1009.6 |
| 20260506042031 | 59 | 127 | 3.5 | 8.7 | 0.58 | 4.18 | 3.18 | 97 | 1009.6 |
| 20260506041550 | 59 | 145 | 2.6 | 8.7 | 0.64 | 4.05 | 3.05 | 97 | 1009.8 |
| 20260506041032 | 59 | 113 | 3.5 | 7.0 | 0.70 | 3.99 | 2.99 | 97 | 1009.7 |
| 20260506040532 | 59 | 102 | 3.5 | 12.2 | 0.74 | 3.90 | 2.90 | 97 | 1009.6 |
| 20260506040047 | 59 | 131 | 5.2 | 12.2 | 0.88 | 3.86 | 2.86 | 97 | 1009.6 |
| 20260506035531 | 59 | 180 | 2.6 | 7.0 | 1.01 | 4.20 | 2.85 | 97 | 1009.7 |
| 20260506035033 | 59 | 243 | 0.9 | 4.3 | 1.08 | 4.18 | 2.83 | 97 | 1009.8 |
| 20260506034549 | 59 | 219 | 0.9 | 7.0 | 1.16 | 4.18 | 2.83 | 97 | 1009.7 |
| 20260506034034 | 59 | 0 | 1.7 | 7.0 | 1.19 | 4.18 | 2.83 | 97 | 1009.6 |
| 20260506033534 | 59 | 81 | 1.7 | 7.0 | 1.21 | 4.18 | 2.83 | 97 | 1009.5 |
| 20260506033045 | 59 | 89 | 1.7 | 8.7 | 1.32 | 4.18 | 2.83 | 97 | 1009.5 |
| 20260506032531 | 59 | 68 | 4.3 | 8.7 | 1.44 | 4.13 | 2.77 | 97 | 1009.5 |
| 20260506032034 | 59 | 69 | 5.2 | 8.7 | 1.43 | 3.93 | 2.58 | 97 | 1009.5 |
| 20260506031550 | 59 | 72 | 4.3 | 7.8 | 1.33 | 3.74 | 2.39 | 97 | 1009.8 |
| 20260506031035 | 59 | 100 | 3.5 | 6.1 | 1.25 | 3.63 | 2.28 | 97 | 1009.9 |
| 20260506030534 | 59 | 105 | 1.7 | 4.3 | 1.11 | 3.48 | 2.13 | 97 | 1010.1 |
| 20260506030045 | 59 | 133 | 1.7 | 2.6 | 0.95 | 3.30 | 1.95 | 97 | 1010.3 |
| 20260506025532 | 59 | 0 | 0.0 | 2.6 | 0.82 | 3.19 | 1.82 | 97 | 1010.2 |
| 20260506025033 | 59 | 96 | 0.9 | 5.2 | 0.74 | 3.11 | 1.74 | 97 | 1010.0 |
| 20260506024557 | 59 | 120 | 1.7 | 5.2 | 0.67 | 3.03 | 1.66 | 97 | 1010.1 |
| 20260506024032 | 59 | 134 | 2.6 | 7.0 | 0.64 | 3.00 | 1.63 | 97 | 1010.1 |
| 20260506023532 | 59 | 105 | 2.6 | 10.4 | 0.62 | 2.99 | 1.62 | 97 | 1010.1 |
| 20260506023043 | 59 | 140 | 5.2 | 10.4 | 0.49 | 2.85 | 1.48 | 97 | 1010.4 |
| 20260506022533 | 59 | 195 | 2.6 | 7.0 | 0.32 | 2.68 | 1.31 | 97 | 1010.4 |
| 20260506022031 | 59 | 65 | 2.6 | 7.0 | 0.14 | 2.51 | 1.14 | 97 | 1010.0 |
| 20260506021548 | 59 | 115 | 2.6 | 7.0 | 0.07 | 2.43 | 1.06 | 97 | 1009.8 |
| 20260506021031 | 59 | 99 | 1.7 | 6.1 | 0.03 | 2.39 | 1.02 | 97 | 1010.2 |
| 20260506020531 | 59 | 104 | 2.6 | 6.1 | 0.01 | 2.37 | 1.00 | 97 | 1010.0 |
| 20260506020047 | 59 | 135 | 1.7 | 4.3 | 0.00 | 2.37 | 1.00 | 97 | 1009.9 |
| 20260506015534 | 59 | 128 | 0.9 | 4.3 | 0.00 | 2.40 | 0.99 | 97 | 1010.1 |
| 20260506015032 | 59 | 109 | 0.9 | 4.3 | 0.00 | 2.40 | 0.99 | 97 | 1010.0 |
| 20260506014546 | 59 | 86 | 1.7 | 4.3 | 0.05 | 2.40 | 0.99 | 97 | 1010.1 |
| 20260506014034 | 59 | 128 | 0.9 | 5.2 | 0.11 | 2.40 | 0.99 | 97 | 1010.3 |
| 20260506013534 | 59 | 146 | 0.9 | 5.2 | 0.15 | 2.40 | 0.99 | 97 | 1010.3 |
| 20260506013043 | 58 | 100 | 0.0 | 2.6 | 0.18 | 2.40 | 0.99 | 97 | 1010.5 |
| 20260506012533 | 58 | 0 | 0.0 | 1.7 | 0.18 | 2.40 | 0.99 | 97 | 1010.4 |
| 20260506012034 | 58 | 0 | 0.0 | 3.5 | 0.18 | 2.40 | 0.99 | 97 | 1010.5 |
| 20260506011540 | 58 | 100 | 0.9 | 5.2 | 0.19 | 2.40 | 0.99 | 97 | 1010.3 |
| 20260506011033 | 58 | 64 | 1.7 | 5.2 | 0.21 | 2.40 | 0.99 | 97 | 1010.5 |
| 20260506010532 | 58 | 49 | 3.5 | 4.3 | 0.22 | 2.40 | 0.99 | 97 | 1010.3 |
| 20260506010049 | 58 | 68 | 0.9 | 6.1 | 0.22 | 2.40 | 0.99 | 97 | 1010.4 |